Location: ?astrovice
(49.6513°N, 14.9287°E)
Time: 05:04:51
(UTC+00:00)

Terra - Pass Details

Date: 09 April 2020
Orbit: 701 x 703 km, 98.2° (Epoch: 29 May)

Event Time Altitude Azimuth Distance (km) Brightness Sun altitude
Exits shadow 20:29:27 58° 84° (E) 824 1.9 -23.5°
Maximum altitude 20:29:40 59° 71° (ENE) 818 1.9 -23.5°
Drops below altitude 10° 20:34:22 10° 353° (N) 2,184 5.1 -24.0°
Sets 20:36:39 0° 349° (N) 3,108 6.1 -24.3°
